Tracking 30402 objects as of 12-May-2025
HD Live streaming from Space Station
objects crossing your sky now

TITAN 4B R/B

Track TITAN 4B R/B now!
10-day predictions
TITAN 4B R/B is classified as:


NORAD ID: 26474
Int'l Code: 2000-047B
Perigee: 523.2 km
Apogee: 582.0 km
Inclination: 68.0 °
Period: 95.6 minutes
Semi major axis: 6923 km
RCS: 15.6118 m2 (large)
Launch date: August 17, 2000
Source: United States (US)
Launch site: AIR FORCE WESTERN TEST RANGE (AFWTR)

Note: This is a ROCKET BODY
Your satellite tracking list
Your tracking list is empty




NASA's NSSDC Master Catalog

Two Line Element Set (TLE):
1 26474U 00047B   25132.53606133  .00003026  00000-0  20656-3 0  9997
2 26474  67.9885 165.4734 0042472  12.6574 347.5629 15.06964362347509
Source of the keplerian elements: AFSPC